(88264) 2001 KN20
ephemeris date magn radius delta ra dec elong phase
Today22 Jun 202619.31.504 AU0.925 AU13h08m+09°23'101.4°41.5°
(88264) 2001 KN20 - 2026-06-22
astro.vanbuitenen.nl


 
-1 year
-1 month
-1 day
Now
+1 day
+1 month
+1 year

The interactive orbit chart above shows the body's path through the solar system and its position at the given date. Green and blue lines are shown perpendicular to the ecliptic plane: Green if the path is above the ecliptic plane, blue if it is below. (Left-click and drag to rotate the view; Right-click and drag to move the view; Use scroll wheel to zoom in our out.)

The orbital elements of 2001 KN20 are:

            e (Eccentricity)                : 0.4534043
            a (Semimajor axis)              : 2.1470223
            i (Inclination)                 : 12.07959
            Ω (Longitude of ascending node) : 104.92021
            ω (Argument of perihelion)      : 201.44768
            M (Mean anomaly)                : 326.78225
            Epoch                           : 2026 Jun 09

            L (Longitude of perihelion)     : 125.93485
            B (Latitude of perihelion)      : -4.38856
            P (Orbital period in years)     : 3.15            
        

The light curve chart below shows the estimated development of the minor planet's magnitude.


The all-sky chart below shows the path of the minor planet over the same period as the light curve. The current position is marked yellow.





The following chart shows the path of the minor planet in the next few days. The field of view is optimized for (~10x50) binoculars and finderscopes.




Ephemerides:
Date       Time       RA (2000)    DEC (2000)    delta   radius  elong  phase   PA    magn
2026-06-22 00:00 UT   13 08 41.4   +09 23 17     0.925    1.504  101.4   41.5   116   19.3 
2026-06-22 09:36 UT   13 08 54.9   +09 16 12     0.926    1.502  101.2   41.6   116   19.3 
2026-06-23 00:00 UT   13 09 15.8   +09 05 30     0.927    1.498  100.8   41.8   116   19.3 
2026-06-24 00:00 UT   13 09 52.6   +08 47 29     0.929    1.492  100.1   42.1   116   19.3 
2026-06-25 00:00 UT   13 10 31.8   +08 29 13     0.931    1.487   99.5   42.4   116   19.4 
2026-06-26 00:00 UT   13 11 13.4   +08 10 43     0.932    1.481   98.8   42.7   115   19.4 
2026-06-27 00:00 UT   13 11 57.3   +07 51 59     0.934    1.476   98.2   43.0   115   19.4 
2026-06-28 00:00 UT   13 12 43.6   +07 33 01     0.936    1.470   97.6   43.3   115   19.4 
2026-06-29 00:00 UT   13 13 32.1   +07 13 50     0.938    1.464   97.0   43.6   115   19.4 
2026-06-30 00:00 UT   13 14 22.9   +06 54 25     0.939    1.459   96.4   43.8   114   19.4 
2026-07-01 00:00 UT   13 15 16.0   +06 34 47     0.941    1.453   95.8   44.1   114   19.4 
2026-07-02 00:00 UT   13 16 11.3   +06 14 56     0.943    1.448   95.2   44.4   114   19.4 
2026-07-03 00:00 UT   13 17 08.8   +05 54 53     0.944    1.442   94.6   44.6   114   19.4 
2026-07-04 00:00 UT   13 18 08.5   +05 34 37     0.946    1.437   94.1   44.9   114   19.4 
2026-07-05 00:00 UT   13 19 10.4   +05 14 08     0.947    1.431   93.5   45.1   113   19.4 
2026-07-06 00:00 UT   13 20 14.4   +04 53 28     0.949    1.426   93.0   45.4   113   19.4 
2026-07-07 00:00 UT   13 21 20.6   +04 32 35     0.950    1.421   92.4   45.6   113   19.4 
2026-07-08 00:00 UT   13 22 29.0   +04 11 30     0.952    1.415   91.9   45.9   113   19.4 
2026-07-09 00:00 UT   13 23 39.5   +03 50 14     0.953    1.410   91.4   46.1   113   19.4 
2026-07-10 00:00 UT   13 24 52.1   +03 28 46     0.955    1.405   90.8   46.4   112   19.4 
2026-07-11 00:00 UT   13 26 06.8   +03 07 07     0.956    1.399   90.3   46.6   112   19.4 
2026-07-12 00:00 UT   13 27 23.6   +02 45 17     0.957    1.394   89.8   46.8   112   19.4 


    Terminology:
            
    delta:  distance between minor planet and earth in AU
    radius: distance between minor planet and sun in AU
    magn:   magnitude (brightness) estimate    
    ra:     right ascension in hours (24h = 360deg)
    dec:    declination in degrees
    elong:  elongation in degrees (angle sun-earth-minor planet)    
    phase:  phase angle in degrees (angle sun-minor planet-earth)        
    AU:     Astronomical Unit (mean distance between earth and sun: 149597870.7 km
    

Orbital elements provided by the MPC (Minor Planet Center).
Calculations by a modified version of AAPlus, a C# implementation of the AA+ project by PJ Naughter from the algorithms presented in the book "Astronomical Algorithms" by Jean Meeus.
NGC2000 dso catalog and star labels from VizieR as provided by the Strasbourg astronomical Data Center.
Tycho2 catalog from the ESO archive.